Terminal Aerodrome Forecast
Issued by NWS

Home | Current Version | Previous Version | Text Only | Print | Product List | Glossary On
Versions: 1 2 3 4 5 6 7 8 9 10 11 12 13 14 15 16 17 18 19 20 21 22 23 24 25
000
FTUS42 KJAX 231120
TAFVQQ
TAF
KVQQ 231120Z 2312/2412 00000KT P6SM BKN060
     FM231400 21007KT P6SM BKN050
     FM231900 15010KT P6SM VCTS BKN040CB
     FM232300 17008KT P6SM VCSH BKN035=

USA.gov is the U.S. government's official web portal to all federal, state and local government web resources and services.